Regional Weather Roundup
Issued by NWS Charleston, SC

Home | Current Version | Previous Version | Text Only | Print | Product List | Glossary On
Versions: 1 2 3 4 5 6 7 8 9 10 11 12 13 14 15 16 17 18 19 20 21 22 23 24 25 26 27 28 29 30 31 32 33 34 35 36 37 38 39 40 41 42 43 44 45 46 47 48 49 50
000
ASUS42 KCHS 182025
RWRCHS

REGIONAL WEATHER ROUNDUP
NATIONAL WEATHER SERVICE CHARLESTON SC
300 PM EST THU DEC 18 2014

NOTE: "FAIR" INDICATES FEW OR NO CLOUDS BELOW 12,000 FEET WITH NO
SIGNIFICANT WEATHER AND/OR OBSTRUCTIONS TO VISIBILITY.

NOT ALL STATIONS ARE QUALITY CONTROLLED BY THE NATIONAL
WEATHER SERVICE. USE DATA WITH CAUTION...ESPECIALLY
DEWPOINT OBSERVATIONS.

SCZ027-030-031-034>040-042>050-182100-
...SOUTHEAST SOUTH CAROLINA...

CITY           SKY/WX    TMP DP  RH WIND       PRES   REMARKS
N CHARLESTON   MOSUNNY   62  41  46 S5        30.07F
WATERFRONT PRK   N/A     61 N/A N/A E8          N/A
MOUNT PLEASANT LGT RAIN  61  45  55 E3        30.08S
PINOPOLIS        N/A     57  46  67 N5        29.99F
MONCKS CORNER  FAIR      61  43  51 N3        30.07S
SUMMERVILLE    FAIR      63  43  48 CALM      30.08R
BEAUFORT MCAS  MOSUNNY   62  42  47 E3        30.07F
BEAUFORT ARPT  FAIR      61  45  55 NW3       30.06F
HILTON HEAD IS SUNNY     55  46  71 CALM      30.09F
WALTERBORO     CLEAR     63  36  36 CALM      30.08S
ALLENDALE      FAIR      63  41  45 CALM      30.06F

...SOUTHERN MIDLANDS AND PEE DEE...

CITY           SKY/WX    TMP DP  RH WIND       PRES   REMARKS
GEORGETOWN     NOT AVBL
KINGSTREE      NOT AVBL
ORANGEBURG     MOSUNNY   60  38  43 CALM      30.07F
BARNWELL       FAIR      63  41  45 CALM      30.08S
AIKEN          FAIR      59  39  47 CALM      30.10S
MANNING        NOT AVBL
COLUMBIA       MOSUNNY   60  33  36 VRB3      30.07F
SUMTER         MOSUNNY   58  31  35 NE3       30.06F
FLORENCE       SUNNY     58  27  30 E3        30.09S
MYRTLE BEACH   SUNNY     55  32  41 SE8       30.10F
N MYRTLE BEACH MOSUNNY   53  35  50 S6        30.08F

$$

GAZ063-065-086>088-099>101-113>116-118-119-134>141-150-182100-
...SOUTHEAST GEORGIA...

CITY           SKY/WX    TMP DP  RH WIND       PRES   REMARKS
SAVANNAH ARPT  MOSUNNY   63  37  38 NW6       30.08F
HUNTER AAF     SUNNY     63  38  39 NW5       30.05F
FORT STEWART   SUNNY     64  36  34 VRB5      30.06F
STATESBORO     SUNNY     62  38  40 W5        30.07S
SYLVANIA       CLEAR     62  42  48 CALM      30.08S
CLAXTON        FAIR      63  37  39 W5        30.08S

...CSRA...CENTRAL AND FAR SOUTHEAST GEORGIA...

CITY           SKY/WX    TMP DP  RH WIND       PRES   REMARKS
THOMSON        MOSUNNY   62  44  51 CALM      30.13R
AUGUSTA-BUSH   MOSUNNY   62  38  40 N3        30.08F
AUGUSTA-DANIEL MOSUNNY   60  39  45 SE5       30.08F
SWAINSBORO     FAIR      63  39  42 CALM      30.09R
VIDALIA        SUNNY     63  36  36 W3        30.08S
EASTMAN        FAIR      65  29  26 CALM      30.11S
HAZLEHURST     FAIR      66  32  28 CALM      30.08R
ALMA           SUNNY     65  26  23 SW5       30.08F
WAYCROSS       MOSUNNY   66  37  34 NW3       30.09F
JESUP          FAIR      66  39  37 W3        30.08F
BAXLEY         FAIR      66  32  28 W5        30.08R
BRUNSWICK      MOSUNNY   64  32  29 W3        30.09R
SAINT SIMONS   MOSUNNY   60  42  51 S5        30.08F

$$

SCZ027-028-034-036>038-045-046-048>050-GAZ119-141-182100-
...LAKE AND SUPPLEMENTAL COASTAL OBSERVATIONS...

STATION/POSITION TIME  TEMP    WIND        PRES    WAVE   SWELL
                       AIR SEA DIR/SP/G            HT/PER HT/PER/DIR
                 (UTC) (F)     (DEG/KT/KT) (MB)    (FT/S) (FT/S/D)
UPR LAKE MARION  NOT AVBL
WINYAH BAY       2000   53      60/  8     1018.0S
LAKE MURRAY      1900   54     250/  2/  4 1018.3F
ACE BASIN NERRS  2000   58        CALM     1018.0S
FORT PULASKI     2000   60 56  290/  2/  2 1018.7S
SAPELO ISLAND    2000   64        CALM     1018.0S

$$

ANZ835-935-AMZ111-154-330-350-352-354-370-450-454-472-182100-
...C-MAN AND BUOY OBSERVATIONS...

STATION/POSITION TIME  TEMP    WIND        PRES    WAVE   SWELL
                       AIR SEA DIR/SP/G            HT/PER HT/PER/DIR
                 (UTC) (F)     (DEG/KT/KT) (MB)    (FT/S) (FT/S/D)
BUOY 41004       2000   62 73  360/  2/  4 1017.9F   1/11   2/11
BUOY 41008       2000   53 58  230/  4/  6 1018.7F   1/10   2/120/10
FOLLY BEACH CMAN 2000   56      80/  6/  7 1019.2F
CAPERS NEARSHORE 1900   55      90/ 12/ 14   N/A
FRIPP NEARSHORE  NOT AVBL


STATION/POSITION TIME  TEMP    WIND        PRES    WAVE   SWELL
                       AIR SEA DIR/SP/G            HT/PER HT/PER/DIR
                 (UTC) (F)     (DEG/KT/KT) (MB)    (FT/S) (FT/S/D)
5E ST. MARYS GA  2000      61                N/A     1/11
FRYING PAN BUOY  2000   55 65   30/ 10/ 12 1019.4F   3/ 5   2/ 20/ 5
BUOY 41025       2000   48                 1019.4F   3/ 6
CAPE LOOKOUT NC  2000   48      60/  8/  9 1019.2R
BUOY 41002       1947   68 73  330/  8/ 12 1017.3F   3/ 6   3/220/ 6
BUOY 41010       2000   71 76  310/  8/ 10 1018.5F   2/ 9   2/120/ 9
ST AUGUSTINE FL  2000   62     290/  5/  6 1019.6F


$$


USA.gov is the U.S. government's official web portal to all federal, state and local government web resources and services.